WEATHER DATA

TODAY
Time Temp. Dewp. Hum. Wind dir Wind speed Wind gust Bar. 1h Prec. 24h Prec.
00:02 19.2 14.5 74 203 0.3 0.6 1008.3 0.0000 0.0000
00:12 19.1 14.4 74 216 0.3 0.6 1008.2 0.0000 0.0000
00:23 19 14.5 75 0 0.8 1008.1 0.0000 0.0000
00:32 19 14.5 75 0 0.6 1008.2 0.0000 0.0000
00:42 18.9 14.4 75 0 0.3 1008 0.0000 0.0000
00:52 18.9 14.4 75 0 0.6 1007.8 0.0000 0.0000
01:03 18.9 14.6 76 180 0.3 0.6 1007.7 0.0000 0.0000
01:13 18.8 14.5 76 0 0.3 1007.8 0.0000 0.0000
01:23 18.8 14.5 76 0 0.6 1007.7 0.0000 0.0000
01:33 18.9 14.6 76 0 0.3 1007.6 0.0000 0.0000
01:43 18.8 14.5 76 0 0.3 1007.6 0.0000 0.0000
01:53 18.8 14.5 76 0 0.3 1007.5 0.0000 0.0000
02:03 18.8 14.5 76 0 0.6 1007.5 0.0000 0.0000
02:14 18.8 14.5 76 0 0.3 1007.6 0.0000 0.0000
02:24 18.8 14.5 76 0 0.3 1007.6 0.0000 0.0000
02:33 18.9 14.4 75 0 0.3 1007.4 0.0000 0.0000
02:44 18.9 14.4 75 0 0.6 1007.4 0.0000 0.0000
02:54 19 14.3 74 33 0.3 0.6 1007.2 0.0000 0.0000
03:04 19 14.3 74 33 0.3 0.6 1007.1 0.0000 0.0000
03:14 19 14.5 75 0 0.3 1006.9 0.0000 0.0000
03:25 19 14.5 75 90 0.3 0.6 1006.8 0.0000 0.0000
03:35 18.9 14.4 75 0 0.6 1006.7 0.0000 0.0000
03:44 18.9 14.4 75 225 0.3 0.6 1006.7 0.0000 0.0000
03:54 18.9 14.4 75 198 0.3 0.6 1006.7 0.0000 0.0000
04:05 18.9 14.4 75 135 0.3 0.6 1006.7 0.0000 0.0000
04:15 18.9 14.4 75 0 0.6 1006.6 0.0000 0.0000
04:25 18.9 14.4 75 0 0.6 1006.5 0.0000 0.0000
04:35 18.9 14.4 75 161 0.3 0.8 1006.5 0.0000 0.0000
04:46 18.9 14.4 75 135 0.3 0.8 1006.3 0.0000 0.0000
04:55 18.9 14.4 75 0 0.6 1006.4 0.0000 0.0000
05:05 18.9 14.2 74 135 0.3 0.8 1006.4 0.0000 0.0000
05:16 18.9 14.4 75 153 0.3 0.8 1006.4 0.0000 0.0000
05:26 18.9 14.2 74 270 0.3 0.6 1006.3 0.0000 0.0000
05:36 18.9 14.2 74 161 0.3 0.6 1006.4 0.0000 0.0000
05:46 18.9 14.2 74 0.3 0.6 1006.4 0.0000 0.0000
05:56 18.9 14.2 74 0 0.6 1006.5 0.0000 0.0000
06:06 18.8 14.3 75 180 0.3 0.6 1006.5 0.0000 0.0000
06:16 18.8 14.3 75 225 0.3 0.6 1006.6 0.0000 0.0000
06:27 18.8 14.1 74 135 0.3 0.6 1006.5 0.0000 0.0000
06:37 18.8 14.1 74 0 0.6 1006.5 0.0000 0.0000
06:47 18.8 14.1 74 90 0.3 0.8 1006.5 0.0000 0.0000
06:57 18.8 13.9 73 90 0.3 0.6 1006.4 0.0000 0.0000
07:07 18.9 14 73 0 0.6 1006.4 0.0000 0.0000
07:17 19 14.1 73 90 0.3 0.6 1006.3 0.0000 0.0000
07:27 19.1 14.2 73 90 0.3 0.6 1006.4 0.0000 0.0000
07:37 19.4 14.4 73 135 0.3 0.6 1006.3 0.0000 0.0000
07:48 20 14.6 71 90 0.3 0.6 1006.3 0.0000 0.0000
07:58 20.2 14.6 70 135 0.3 0.6 1006.3 0.0000 0.0000
08:07 20.3 14.9 71 0 0.3 1006.4 0.0000 0.0000
08:18 20.4 15 71 90 0.3 0.6 1006.4 0.0000 0.0000
08:28 20.4 15 71 90 0.3 0.6 1006.4 0.0000 0.0000
08:38 20.4 15.2 72 0 0.3 1006.3 0.0000 0.0000
08:48 20.5 15.3 72 45 0.3 0.6 1006.3 0.0000 0.0000
08:59 20.5 15.3 72 0 0.6 1006.4 0.0000 0.0000
09:08 20.7 15.3 71 45 0.3 0.3 1006.3 0.0000 0.0000
09:18 20.8 15.4 71 90 0.3 0.6 1006.2 0.0000 0.0000
09:29 21.1 15.9 72 90 0.3 0.8 1006.3 0.0000 0.0000
09:39 21.3 16.1 72 225 0.3 0.6 1006.3 0.0000 0.0000
09:49 21.5 16.2 72 270 0.3 0.6 1006.4 0.0000 0.0000
09:59 21.8 16.5 72 149 0.3 0.6 1006.4 0.0000 0.0000
10:10 22.2 16.9 72 143 0.3 0.6 1006.3 0.0000 0.0000
10:19 22.5 16.8 70 135 0.3 1.1 1006.2 0.0000 0.0000
10:29 22.8 16.6 68 270 0.3 1.1 1006.3 0.0000 0.0000
10:39 23.1 16.6 67 33 0.3 0.8 1006.3 0.0000 0.0000
10:50 23.4 16.7 66 315 0.3 1.7 1006.2 0.0000 0.0000
11:00 23.7 16.7 65 270 0.3 0.6 1006.3 0.0000 0.0000
11:10 24 16.8 64 315 0.3 1.1 1006.2 0.0000 0.0000
11:20 24.3 17.1 64 135 0.3 0.6 1006 0.0000 0.0000
11:30 24.5 17 63 90 0.3 0.8 1006.1 0.0000 0.0000
11:40 24.8 17 62 135 0.3 0.6 1006 0.0000 0.0000
11:51 25.1 17.3 62 198 0.3 1.1 1006.1 0.0000 0.0000
12:01 25.3 17.2 61 0 0.3 1.4 1006.1 0.0000 0.0000
12:11 25.7 17.4 60 90 0.3 1.4 1006 0.0000 0.0000
12:21 26 17.6 60 149 0.3 1.7 1006.1 0.0000 0.0000
12:31 26.3 17.4 58 135 0.3 1.7 1006 0.0000 0.0000
12:42 26.7 17.8 58 270 0.3 1.1 1005.9 0.0000 0.0000
12:52 27.1 17.9 57 225 0.3 0.8 1005.8 0.0000 0.0000
13:01 27.5 17.7 55 270 0.3 1.1 1005.8 0.0000 0.0000
13:12 27.8 17.6 54 270 0.3 1.1 1005.8 0.0000 0.0000
13:22 28.2 18 54 225 0.3 0.8 1005.7 0.0000 0.0000
13:32 28.5 18 53 0.3 0.8 1005.7 0.0000 0.0000
13:42 28.8 17.7 51 180 0.3 0.8 1005.5 0.0000 0.0000
13:53 29.1 17.6 50 270 0.3 0.8 1005.5 0.0000 0.0000
14:03 29.3 16.8 47 270 0.3 1.4 1005.5 0.0000 0.0000
14:12 29.5 17 47 90 0.3 0.8 1005.4 0.0000 0.0000
14:23 29.7 17.5 48 180 0.3 0.8 1005.4 0.0000 0.0000
14:33 29.8 17.3 47 225 0.3 1.1 1005.3 0.0000 0.0000
14:43 30 17.1 46 270 0.3 0.8 1005.4 0.0000 0.0000
14:53 30.1 17.2 46 191 0.3 1.1 1005.3 0.0000 0.0000
15:03 30.2 17.3 46 208 0.3 1.7 1005.4 0.0000 0.0000
15:13 30.3 17.4 46 225 0.3 0.6 1005.4 0.0000 0.0000
15:23 30.4 16.8 44 225 0.3 1.9 1005.4 0.0000 0.0000
15:33 30.4 16.8 44 225 0.3 1.4 1005.3 0.0000 0.0000
15:44 30.2 17 45 173 0.3 0.8 1005.4 0.0000 0.0000
15:53 30.1 17.6 47 198 0.3 0.6 1005.3 0.0000 0.0000
16:03 30.1 17.6 47 156 0.3 0.6 1005.3 0.0000 0.0000
16:14 30.1 17.2 46 180 0.3 0.6 1005.2 0.0000 0.0000
16:24 30.1 17.6 47 142 0.3 1.4 1005.4 0.0000 0.0000
16:34 30 17.1 46 210 0.3 1.1 1005.6 0.0000 0.0000
16:44 29.7 17.2 47 171 0.3 0.8 1005.3 0.0000 0.0000

DAY STATISTIC

2019-08-18
TEMPERATURE
AVERAGE
22.6
HIGH
30.4
15:23
LOW
18.8
01:13
PRESSURE
AVERAGE
1006.4
HIGH
1008.3
00:02
LOW
1005.2
16:14
DEWPOINT
AVERAGE
15.7
HIGH
18.0
13:22
LOW
13.9
06:57
HUMIDITY
AVERAGE
66
HIGH
76
01:03
LOW
44
15:23
WIND SPEED
AVERAGE
0.2
HIGH
0.3
00:02
WIND GUST
AVERAGE
0.7
HIGH
1.9
15:23
WIND DIRECTION
PREVAILING
SE
16%
N
1.0
NE
5.0
E
13.0
SE
16.0
S
14.0
SW
12.0
W
10.0
NW
2.0
PRECIPITATION
RAIN HOUR
0.0
RAIN DAY
0.0
TEMPERATURE (°C)
LOW
18.8
HIGH
30.4
AVERAGE
22.6
PRESSURE (hpa)
LOW
1005.2
HIGH
1008.3
AVERAGE
1006.4
DEVICE